TimeCST,TemperatureF,Dew PointF,Humidity,Sea Level PressureIn,VisibilityMPH,Wind Direction,Wind SpeedMPH,Gust SpeedMPH,PrecipitationIn,Events,Conditions,WindDirDegrees,DateUTC
1:52 AM,43.0,28.0,56,29.94,10.0,South,4.6,-,N/A,,Clear,170,2012-12-06 07:52:00
8:52 AM,46.9,39.0,74,29.91,10.0,Calm,Calm,-,N/A,,Mostly Cloudy,0,2012-12-06 14:52:00
9:52 AM,48.0,39.9,74,29.91,10.0,South,3.5,-,N/A,,Scattered Clouds,170,2012-12-06 15:52:00
10:00 AM,48.2,39.2,71,29.90,10.0,South,3.5,-,N/A,,Mostly Cloudy,170,2012-12-06 16:00:00
10:32 AM,48.2,41.0,76,29.90,10.0,Calm,Calm,-,N/A,,Overcast,0,2012-12-06 16:32:00
10:52 AM,50.0,41.0,71,29.92,10.0,Calm,Calm,-,N/A,,Overcast,0,2012-12-06 16:52:00
11:23 AM,51.8,42.8,71,29.91,10.0,WSW,3.5,-,N/A,,Overcast,240,2012-12-06 17:23:00
11:52 AM,53.1,43.0,69,29.91,10.0,NW,3.5,-,N/A,,Scattered Clouds,320,2012-12-06 17:52:00
12:19 PM,53.6,42.8,67,29.88,10.0,West,3.5,-,N/A,,Mostly Cloudy,280,2012-12-06 18:19:00
12:34 PM,55.4,42.8,63,29.87,10.0,WNW,3.5,-,N/A,,Scattered Clouds,290,2012-12-06 18:34:00
12:52 PM,54.0,43.0,66,29.87,10.0,NNE,5.8,-,N/A,,Clear,20,2012-12-06 18:52:00
1:52 PM,54.0,43.0,66,29.86,10.0,Variable,4.6,-,N/A,,Clear,0,2012-12-06 19:52:00
2:27 PM,53.6,42.8,67,29.85,10.0,NNE,5.8,-,N/A,,Mostly Cloudy,20,2012-12-06 20:27:00
2:52 PM,54.0,43.0,66,29.86,10.0,NE,8.1,-,N/A,,Overcast,50,2012-12-06 20:52:00
3:52 PM,53.1,39.0,59,29.89,10.0,NNE,8.1,-,N/A,,Overcast,20,2012-12-06 21:52:00
4:35 PM,51.8,37.4,58,29.90,10.0,NNE,6.9,-,N/A,,Overcast,20,2012-12-06 22:35:00
4:52 PM,51.1,36.0,56,29.90,10.0,NNE,10.4,-,N/A,,Overcast,20,2012-12-06 22:52:00
5:52 PM,48.0,34.0,58,29.92,10.0,NNE,4.6,-,N/A,,Clear,20,2012-12-06 23:52:00
6:52 PM,48.0,33.1,56,29.95,10.0,North,4.6,-,N/A,,Overcast,350,2012-12-07 00:52:00
7:52 PM,48.0,35.1,61,29.96,10.0,NNE,11.5,-,N/A,,Overcast,30,2012-12-07 01:52:00
8:52 PM,46.9,35.1,63,29.96,10.0,NNE,11.5,-,N/A,,Overcast,30,2012-12-07 02:52:00
9:52 PM,46.9,33.1,59,29.95,10.0,NE,8.1,-,N/A,,Overcast,40,2012-12-07 03:52:00
10:52 PM,45.0,34.0,65,29.96,10.0,NNE,6.9,-,N/A,,Overcast,20,2012-12-07 04:52:00
11:52 PM,43.0,33.1,68,29.96,10.0,NNE,6.9,-,N/A,,Scattered Clouds,20,2012-12-07 05:52:00